Weather in Lubimovka

Russia / Republic of Crimea     45°37′58″N   34°55′24″E
temp.,
°C
wind,
m/s
gust,
m/s
humid.,
%
clouds,
%
prec.,
mm/h
press.,
hPa
HPBL,
m
27 february, sat
sat2700:00+7wsw813880 0.0 1021273
03:00+7wsw915890 0.0 1020299
06:00+6wsw915910 0.0 1019298
09:00+7wsw813900 0.0 1019254
12:00+8w67840 0.0 101864
15:00+7nnw811871 0.0 1017136
18:00+6nnw579181 0.3 1017106
21:00+5nnw579390 3.2 1018218
28 february, sun
sun2800:00+5nnw5794100 1.9 1018331
03:00+5nnw6783100 2.5 1019463
06:00+4nnw7886100 0.1 1019519
09:00+4nw7888100 0.3 1020600
12:00+3nw569493 0.1 1020404
15:00+4nw898190 0.3 1021757
18:00+4nw787793 0.1 1021883
21:00+4nw677896 0.1 1023781
1 march, mon
mon100:00+3nw6682100 0.1 1024432
03:00+3nw558599 0.1 1024448
06:00+3nw4580100 0.1 1025602
09:00+3nnw4478100 0.1 1026581
12:00+3nnw447835 0.0 1026498
15:00+3nnw337449 0.0 1027329
18:00+3nnw22700 0.0 1027286
21:00+4wnw237243 0.1 1029351
2 march, tue
tue200:00+4n2268100 0.2 1029571
03:00+4nne336585 0.3 1030705
06:00+4nnw336632 0.0 1030697
09:00+3wnw447418 0.0 1030485
12:00+3wnw456834 0.0 1030510
15:00+5wnw687117 0.0 1028664
18:00+5w7117323 0.0 1026585
21:00+4w10147960 0.0 1025663
3 march, wed
wed300:00+5w11148397 0.0 1024532
03:00+5wnw899180 0.0 1023376
06:00+5nw67830 0.0 1024284
09:00+5nw89810 0.0 1025481
12:00+5nw79740 0.0 1026730
15:00+5nw67720 0.0 1026229
18:00+6nw56690 0.0 1027113
21:00+6nnw45670 0.0 1028104